User: anonymous   Login
Location: Bothwell
(42.3833°S, 147.0000°E)
Time: 01:16:38
(UTC+10:00)
Language:

JY1SAT - Orbit

View from above orbital plane
View from above orbital plane
View from above satellite
View from above satellite

Ground track
Ground track

The orbit data is extracted from the following two-line orbital elements,

1 43803U 18099AX  22274.12307821  .00004089  00000-0  35468-3 0  9996
2 43803  97.6086 338.4661 0012918 271.4837  88.4905 14.97554656208882
Epoch (UTC): 01 October 2022 02:57:13
Eccentricity: 0.0012918
inclination: 97.6086°
perigee height: 565 km
apogee height: 583 km
right ascension of ascending node: 338.4661°
argument of perigee: 271.4837°
revolutions per day: 14.97554656
mean anomaly at epoch: 88.4905°
orbit number at epoch: 20888

The dashed part of the orbit path shows where the satellite is in the earth's shadow,  

DLR